This is the latest recevied weather packets stored in our database for station/object KC5DP. If no packets are shown the sender has not sent any weather packets the latest 10 day(s).
| Time | Temp. | Humidity | Pressure | Rain* | Wind** | Luminosity | Snow |
|---|---|---|---|---|---|---|---|
| 1777508527 | 21.11° C | 89% | 1010.8 hPa | 0 mm | - | 6 W/m² | - |
| 1777508224 | 21.11° C | 89% | 1011.1 hPa | 0 mm | - | 6 W/m² | - |
| 1777507921 | 21.11° C | 88% | 1011.4 hPa | 0 mm | - | 4 W/m² | - |
| 1777507618 | 21.11° C | 88% | 1011.6 hPa | 0 mm | - | 3 W/m² | - |
| 1777507315 | 21.67° C | 86% | 1011.7 hPa | 0 mm | - | 8 W/m² | - |
| 1777507012 | 22.22° C | 82% | 1011.5 hPa | 0 mm | - | 11 W/m² | - |
| 1777506709 | 22.78° C | 79% | 1011.6 hPa | 0 mm | - | 6 W/m² | - |
| 1777506405 | 23.89° C | 77% | 1011.2 hPa | 0 mm | - | 5 W/m² | - |
| 1777506102 | 26.67° C | 78% | 1010.9 hPa | 0 mm | - | 5 W/m² | - |
| 1777505797 | 26.67° C | 79% | 1010.6 hPa | 0 mm | - | 10 W/m² | - |
| 1777505495 | 26.67° C | 80% | 1010.2 hPa | 0 mm | - | 23 W/m² | - |
| 1777505191 | 26.67° C | 76% | 1009.8 hPa | 0 mm | - | 26 W/m² | - |
| 1777504888 | 27.22° C | 72% | 1009.5 hPa | 0 mm | - | 20 W/m² | - |
| 1777504585 | 27.22° C | 72% | 1009.5 hPa | 0 mm | - | 20 W/m² | - |
| 1777504280 | 27.22° C | 72% | 1009.5 hPa | 0 mm | - | 20 W/m² | - |
| 1777503976 | 27.22° C | 72% | 1009.1 hPa | 0 mm | - | 18 W/m² | - |
| 1777503674 | 27.22° C | 69% | 1009.3 hPa | 0 mm | - | 19 W/m² | - |
| 1777503370 | 27.22° C | 70% | 1009.3 hPa | 0 mm | - | 21 W/m² | - |
| 1777503066 | 27.78° C | 68% | 1009.2 hPa | 0 mm | - | 30 W/m² | - |
| 1777502764 | 27.78° C | 68% | 1009.2 hPa | 0 mm | - | 30 W/m² | - |
| 1777502460 | 27.78° C | 66% | 1009.1 hPa | 0 mm | - | 30 W/m² | - |
| 1777502157 | 28.33° C | 66% | 1008.9 hPa | 0 mm | - | 31 W/m² | - |
| 1777501855 | 28.33° C | 65% | 1008.8 hPa | 0 mm | - | 30 W/m² | - |
| 1777500850 | 28.89° C | 65% | 1009 hPa | 0 mm | - | 84 W/m² | - |
| 1777500546 | 28.89° C | 65% | 1009 hPa | 0 mm | - | 84 W/m² | - |
* Rain latest hour (hover to see other rain measurements)
** Current wind speed in m/s (hover to see current wind gust speed)